Location: Blankensee
(53.5126°N, 14.3055°E)
Time: 18:19:45
(UTC+00:00)

USA 229 - Pass Details

Date: 08 August 2020
Orbit: 975 x 1237 km, 63.4° (Epoch: 17 September)

Event Time Altitude Azimuth Distance (km) Brightness Sun altitude
Exits shadow 02:05:32 11° 201° (SSW) 2,697 5.2 -10.8°
Maximum altitude 02:11:37 55° 126° (SE) 1,238 4.1 -10.2°
Drops below altitude 10° 02:18:20 10° 51° (NE) 2,942 7.7 -9.5°
Sets 02:21:08 0° 48° (NE) 3,943 9.2 -9.2°
